Weather History for Spencer, IA

Change the Weather History Date:

Thursday, June 27, 2013

  Actual Average Record
Temperature  
Mean Temperature 76 °F -  
Max Temperature 88 °F 83 °F 98 °F (2012)
Min Temperature 64 °F 58 °F 46 °F (2000)
Cooling Degree Days 10    
Growing Degree Days 26 (Base 50)    
Moisture  
Dew Point 60 °F    
Average Humidity 60    
Maximum Humidity 90    
Minimum Humidity 32    
Precipitation  
Precipitation 0.00 in - - ()
Sea Level Pressure  
Sea Level Pressure 29.90 in    
Wind  
Wind Speed 7 mph (WNW)    
Max Wind Speed 18 mph    
Max Gust Speed 30 mph    
Visibility 10 miles    
Events      
Averages and records for this station are not official NWS values.
T = Trace of Precipitation, MM = Missing Value Source: NWS Daily Summary

Daily Weather History Graph

Daily Weather History Graph

Search for Another Location

Airport:

Trip Planner

Search our weather history database for the weather conditions in past years. The results will help you decide how hot, cold, wet, or windy it might be!

Date:

Astronomy

Jun. 27, 2013 Rise Set
Actual Time 5:43 AM CDT 9:04 PM CDT
Civil Twilight 5:07 AM CDT 9:40 PM CDT
Nautical Twilight 4:21 AM CDT 10:26 PM CDT
Astronomical Twilight 3:24 AM CDT 11:23 PM CDT
Moon 11:52 PM CDT (6/27) 10:53 AM CDT (6/27)
Length of Visible Light 16h 32m
Length of Day
15h 21m
Waning Gibbous, 76% of the Moon is Illuminated
Jun 27
Waning Gibbous
Jun 29
Last Quarter
Jul 8
New
Jul 15
First Quarter
Jul 22
Full

Hourly Weather History & Observations

Time (CDT) Temp. Heat Index Dew Point Humidity Pressure Visibility Wind Dir Wind Speed Gust Speed Precip Events Conditions
12:53 AM 69.1 °F - 63.0 °F 81% 29.87 in 10.0 mi Calm Calm - N/A   Clear
1:53 AM 66.9 °F - 64.0 °F 90% 29.87 in 10.0 mi Calm Calm - N/A   Clear
2:53 AM 66.0 °F - 62.1 °F 87% 29.87 in 10.0 mi SSW 5.8 mph - N/A   Clear
3:53 AM 64.9 °F - 62.1 °F 90% 29.87 in 10.0 mi WSW 3.5 mph - N/A   Clear
4:53 AM 66.9 °F - 62.1 °F 84% 29.88 in 10.0 mi SW 4.6 mph - N/A   Scattered Clouds
5:53 AM 66.9 °F - 62.1 °F 84% 29.88 in 10.0 mi NW 4.6 mph - N/A   Clear
6:53 AM 71.1 °F - 63.0 °F 75% 29.88 in 10.0 mi WSW 9.2 mph - N/A   Mostly Cloudy
7:53 AM 73.0 °F - 64.0 °F 73% 29.90 in 10.0 mi WNW 10.4 mph - N/A   Scattered Clouds
8:53 AM 75.0 °F - 66.0 °F 73% 29.91 in 10.0 mi WNW 8.1 mph - N/A   Mostly Cloudy
9:53 AM 77.0 °F - 66.0 °F 69% 29.91 in 10.0 mi West 9.2 mph - N/A   Partly Cloudy
10:53 AM 77.0 °F - 66.0 °F 69% 29.94 in 10.0 mi West 12.7 mph - N/A   Clear
11:53 AM 78.1 °F - 64.0 °F 62% 29.95 in 10.0 mi West 13.8 mph - N/A   Scattered Clouds
12:53 PM 79.0 °F - 62.1 °F 56% 29.95 in 10.0 mi West 10.4 mph - N/A   Scattered Clouds
1:53 PM 84.0 °F 84.4 °F 61.0 °F 46% 29.94 in 10.0 mi WNW 15.0 mph 21.9 mph N/A   Clear
2:53 PM 86.0 °F 85.4 °F 59.0 °F 40% 29.93 in 10.0 mi NW 15.0 mph 24.2 mph N/A   Clear
3:53 PM 87.1 °F 85.7 °F 55.9 °F 35% 29.92 in 10.0 mi NW 12.7 mph 23.0 mph N/A   Clear
4:53 PM 87.1 °F 85.3 °F 55.0 °F 33% 29.91 in 10.0 mi NW 13.8 mph 26.5 mph N/A   Clear
5:53 PM 86.0 °F 84.0 °F 53.1 °F 32% 29.90 in 10.0 mi WNW 18.4 mph 29.9 mph N/A   Clear
6:53 PM 84.9 °F 83.2 °F 53.1 °F 33% 29.89 in 10.0 mi NW 16.1 mph 25.3 mph N/A   Clear
7:13 PM 84.2 °F 82.8 °F 53.6 °F 35% 29.92 in 2.0 mi NW 18.4 mph 25.3 mph N/A   Haze
7:23 PM 84.2 °F 82.8 °F 53.6 °F 35% 29.92 in 10.0 mi NNW 18.4 mph 25.3 mph N/A   Clear
7:53 PM 82.9 °F 81.9 °F 54.0 °F 37% 29.88 in 10.0 mi NW 12.7 mph 23.0 mph N/A   Clear
8:53 PM 75.0 °F - 57.9 °F 55% 29.88 in 10.0 mi WNW 8.1 mph - N/A   Clear
9:53 PM 73.9 °F - 57.9 °F 57% 29.87 in 10.0 mi West 6.9 mph - N/A   Clear
10:53 PM 70.0 °F - 59.0 °F 68% 29.88 in 10.0 mi WSW 8.1 mph - N/A   Clear
11:53 PM 69.1 °F - 59.0 °F 70% 29.91 in 10.0 mi WNW 6.9 mph - N/A   Scattered Clouds